RH
50 52 55 56 57 58 60 66 69 70 68 68 71 71 68 66 64 63 63 61 59 56 54 53 51 50 48 46 45 45 44 44 45 48 51 54 58 61 63 64 64 66 66 67 64 59 55 55 57 58 59 60 61 60 59 59 58 56 54 52 50 50 51 59 71 69 59 56 54 53 53 52 53 54 55 56 52 53 59 57 58 70 84 90 89
53 54 55 58 61 64 68 68 64 60 59 60 63 65 67 68 68 67 64 60 58 57 57 57 55 52 49 48 48 48 47 48 49 53 57 60 62 64 64 65 66 67 68 67 64 59 57 58 59 61 61 63 64 63 62 61 60 59 57 56 54 52 52 54 63 69 66 60 56 54 53 54 55 55 54 55 53 50 53 56 56 62 75 85 89
53 56 60 65 68 68 66 61 55 56 61 65 64 64 66 69 69 66 61 59 60 61 62 61 58 54 51 50 51 51 51 51 54 58 62 66 67 67 67 67 69 69 69 68 64 60 60 62 63 64 63 65 66 66 65 63 63 62 60 59 57 55 54 54 58 65 67 64 58 55 55 56 56 55 54 53 52 49 48 51 53 56 66 79 87
59 65 69 70 68 65 60 54 52 53 56 59 61 65 70 75 74 68 63 63 66 68 68 66 61 57 54 54 54 55 56 56 58 62 66 69 70 69 69 69 70 69 67 65 63 61 62 64 65 65 65 67 69 70 70 68 65 64 62 62 61 58 57 56 57 61 64 65 62 57 57 57 56 55 54 53 51 48 47 48 49 53 58 69 82
70 72 70 67 62 58 54 51 51 53 56 62 69 76 80 83 82 78 76 78 78 77 76 72 67 62 58 57 57 59 61 61 63 66 68 71 72 71 70 69 69 68 67 65 63 63 64 64 63 63 64 67 70 72 74 73 71 68 66 65 63 61 60 59 59 60 63 67 66 61 58 58 58 57 56 56 52 50 50 48 50 55 53 58 76
73 68 63 60 56 55 56 56 58 63 71 78 82 85 84 82 81 80 80 81 82 83 83 79 73 67 63 61 60 62 64 66 67 69 71 73 73 72 70 69 68 68 68 66 65 65 65 63 62 63 65 69 73 74 75 76 76 73 71 69 67 66 65 64 63 62 64 66 66 64 61 60 62 61 60 59 55 53 51 48 53 60 56 60 76
64 60 58 58 58 62 66 69 73 78 82 80 75 73 72 69 70 72 72 72 74 77 80 82 79 73 69 66 64 65 67 69 71 73 74 75 75 73 71 70 69 69 68 68 67 66 66 65 64 64 67 72 76 78 79 79 80 79 76 72 70 72 72 70 67 65 66 67 68 68 66 64 66 67 65 62 58 54 51 54 63 62 57 64 76
59 60 63 64 67 73 76 79 80 78 74 68 64 65 68 69 71 75 77 76 76 76 76 81 83 79 74 71 69 69 70 73 74 76 77 77 77 75 73 72 71 71 70 70 70 69 67 65 65 65 67 69 74 80 83 82 82 82 80 77 75 74 75 74 72 69 69 71 73 73 71 71 72 72 70 65 61 56 50 55 62 56 51 61 71
64 68 71 73 76 79 78 77 76 72 70 70 72 76 79 80 81 82 83 83 83 82 81 83 86 85 81 77 73 73 75 76 77 78 79 78 77 76 75 75 74 74 75 73 71 69 68 67 68 69 68 69 75 82 85 87 87 82 80 81 81 79 78 77 76 76 78 81 81 80 79 80 79 76 73 67 62 58 51 53 59 58 59 64 70
70 73 74 73 76 76 73 72 73 74 76 79 82 85 86 88 88 86 85 83 83 85 85 85 87 87 86 83 80 79 79 78 79 80 81 80 78 77 77 77 78 78 78 77 74 70 69 70 71 72 73 78 83 83 84 91 93 87 82 81 82 82 82 81 81 81 85 88 87 84 85 86 83 80 75 68 63 60 57 59 61 63 71 75 74
76 76 72 70 70 70 72 75 77 79 82 85 87 89 89 90 88 87 86 85 88 91 89 85 84 86 87 87 86 85 83 82 81 80 80 80 81 80 78 77 79 80 80 79 77 74 74 74 75 76 78 83 86 84 86 92 93 92 91 90 87 85 83 83 84 86 89 91 89 88 89 89 84 81 77 71 66 62 61 63 62 66 81 88 86
75 73 72 70 71 73 77 81 83 85 87 88 89 90 90 89 89 88 89 90 93 94 90 88 88 90 92 92 92 90 87 85 83 80 78 78 81 85 85 81 79 80 80 79 78 78 79 80 81 81 81 82 86 89 92 95 94 94 97 98 97 95 90 86 85 85 87 91 92 91 89 87 84 81 77 71 64 61 61 61 61 69 83 89 92
72 72 73 75 77 81 84 86 88 90 90 90 91 91 91 91 90 90 90 90 90 91 91 91 91 95 98 96 94 93 91 88 84 80 79 78 79 84 92 93 87 82 80 78 78 80 82 85 87 88 87 88 90 92 93 94 95 96 98 99 100 100 99 96 92 86 83 86 92 92 88 86 83 78 73 68 63 63 63 62 61 66 72 77 85
75 76 78 82 85 87 89 89 91 91 91 92 92 92 93 91 90 90 90 91 92 93 94 92 93 98 99 95 94 95 93 90 86 80 79 80 80 82 91 99 96 90 84 80 78 80 81 84 88 89 89 91 93 91 89 92 97 98 98 99 100 100 100 101 100 96 89 87 90 89 84 82 80 73 69 68 67 65 66 66 66 66 66 69 73
80 81 84 88 90 90 90 91 92 92 92 94 94 94 93 92 93 94 94 96 97 95 94 94 98 101 97 92 97 98 95 92 89 84 81 82 82 84 92 100 101 96 90 85 82 81 81 83 86 87 88 89 92 93 91 92 97 100 99 98 99 101 100 100 101 101 100 97 96 93 87 83 82 78 75 75 75 74 74 73 71 69 71 72 69
84 86 89 92 92 92 92 93 93 93 94 95 95 95 95 95 96 97 98 99 98 96 96 96 97 99 94 93 99 101 96 93 90 86 85 84 85 89 96 100 101 100 95 90 88 86 85 85 86 87 87 86 87 91 95 97 99 100 100 99 98 99 100 100 100 99 100 100 99 97 92 85 83 84 84 85 83 82 81 79 75 74 77 80 76
88 90 92 93 92 92 93 94 95 95 96 97 98 97 97 98 98 97 100 102 99 98 100 95 92 96 97 96 101 102 98 94 92 89 87 87 88 94 99 101 100 101 99 95 93 92 91 89 88 89 89 87 87 89 93 98 101 101 100 100 100 99 99 99 100 100 100 101 100 98 94 90 90 93 95 96 93 90 88 84 79 79 83 90 89
91 92 93 94 93 93 94 94 96 97 97 98 98 97 97 98 97 97 100 100 99 100 99 94 94 99 100 98 102 103 98 96 96 94 90 88 90 96 101 101 100 101 101 99 98 97 97 97 96 93 91 90 91 93 93 96 101 101 100 99 100 100 100 100 101 98 95 97 99 99 97 97 99 100 100 100 98 96 94 85 76 76 82 90 91
94 95 95 96 95 95 95 96 97 97 98 98 97 97 98 97 97 98 98 98 100 100 94 92 98 101 100 100 102 102 100 98 97 97 95 91 92 96 100 102 101 100 100 100 99 99 99 101 100 98 95 93 94 95 95 97 100 101 100 100 100 100 100 101 99 94 90 90 93 96 99 100 100 100 101 99 95 95 96 92 84 81 81 81 82
96 97 97 97 96 95 95 96 96 96 97 97 95 96 97 97 97 97 95 98 102 98 91 94 102 102 100 102 102 100 101 100 97 99 100 96 94 96 100 101 100 99 98 97 98 98 98 100 100 96 95 96 97 97 96 97 99 100 100 100 100 100 99 97 95 96 96 91 85 84 89 93 94 94 96 96 94 96 99 100 97 92 88 83 80
97 97 98 97 97 97 96 95 95 96 95 94 95 96 95 95 95 93 94 99 101 95 92 97 102 101 101 103 102 98 98 98 97 99 101 100 98 98 100 101 100 100 99 97 97 96 95 96 96 93 90 92 95 96 96 94 94 98 101 100 97 96 94 87 85 95 101 95 86 82 83 84 85 86 86 86 86 88 93 99 101 99 97 94 87
98 98 98 97 96 97 95 94 94 94 93 93 96 96 93 91 90 90 96 101 97 91 94 98 99 100 101 102 101 98 96 95 96 98 101 101 100 99 101 101 99 99 100 98 97 96 94 92 92 90 88 89 90 91 92 90 90 95 100 99 97 96 91 80 77 88 99 98 95 93 89 87 89 87 83 80 79 78 82 90 98 100 100 99 95
98 98 98 97 97 96 95 94 94 92 92 94 95 94 91 87 88 94 98 97 91 90 96 99 98 100 100 98 97 96 94 94 95 98 102 102 100 100 101 100 98 99 101 99 95 93 92 91 91 90 89 90 90 90 89 88 89 93 94 93 95 98 97 89 82 87 95 99 100 100 96 95 98 96 88 82 78 76 76 81 91 98 101 100 99
99 98 98 97 96 95 95 94 93 91 92 94 93 91 88 85 90 97 94 90 91 94 96 98 99 100 99 97 95 93 92 93 92 94 100 102 101 100 100 100 98 98 100 100 93 90 89 89 89 90 90 91 91 90 88 88 89 92 92 89 90 95 100 100 95 93 96 99 100 101 98 97 97 91 81 73 71 73 75 78 86 96 100 100 100
100 99 98 97 96 96 96 93 92 92 93 91 90 89 87 88 93 93 88 89 95 96 95 97 98 98 99 99 97 93 92 93 91 91 96 101 102 101 101 101 99 96 100 100 89 83 87 91 90 91 92 93 93 91 91 90 89 92 93 91 91 96 100 101 100 99 100 100 100 100 100 96 89 77 70 71 75 78 82 86 91 96 100 101 100
100 99 99 98 97 97 96 94 94 94 91 88 88 88 88 91 93 89 87 93 98 96 96 98 97 97 97 96 95 94 93 94 94 93 94 97 99 100 100 101 97 93 97 98 86 78 87 94 92 92 94 96 97 97 97 94 91 93 94 93 95 100 101 99 99 100 100 99 99 100 99 94 86 79 79 86 89 86 86 91 95 97 99 100 100
100 100 99 98 98 97 96 96 97 95 90 87 88 89 89 90 91 90 91 98 101 98 98 98 96 97 96 94 94 94 93 95 96 95 93 92 94 97 98 100 99 94 96 99 92 87 93 97 93 92 96 99 100 100 100 98 96 97 99 99 100 100 97 94 93 94 95 96 96 99 100 96 93 93 95 97 95 90 88 91 94 96 97 98 100
100 100 99 98 98 97 97 98 97 94 91 90 90 91 91 90 90 94 97 101 102 101 100 100 99 98 96 94 94 95 95 95 93 93 94 94 93 95 98 99 99 96 98 102 100 96 98 100 98 98 99 100 100 100 100 100 99 98 100 100 100 98 95 93 92 91 93 95 94 96 98 98 97 97 98 100 99 94 91 91 91 90 92 96 100
101 100 100 99 98 98 98 98 96 93 92 92 91 91 90 90 93 98 99 97 98 99 100 102 102 101 99 98 97 98 96 90 84 88 97 99 96 96 98 97 96 92 93 97 98 98 99 100 100 101 101 101 101 101 100 99 97 96 96 97 96 95 95 96 95 92 90 89 90 93 93 91 89 86 87 93 98 96 96 97 92 88 91 97 101
101 100 100 100 99 100 99 97 95 94 94 94 92 90 89 89 93 98 97 95 95 98 101 101 100 100 101 98 96 97 95 89 88 96 101 99 95 95 96 97 97 94 93 94 94 96 99 101 101 101 100 98 96 95 95 95 94 93 93 91 89 89 89 91 93 93 90 88 88 88 85 82 80 77 76 82 89 93 97 100 98 94 96 100 101
102 101 101 100 99 100 100 97 96 96 95 93 93 93 91 89 88 91 93 96 98 100 100 99 99 100 101 98 95 96 96 93 95 99 98 92 91 92 93 92 90 87 90 95 96 95 97 97 96 95 93 91 91 92 91 91 91 91 90 88 86 85 85 86 87 86 86 84 82 80 79 79 80 80 80 83 87 89 91 95 98 99 100 101 101
102 101 101 100 100 101 99 97 98 97 95 93 93 94 95 93 89 87 88 93 98 101 100 101 101 100 100 98 96 97 95 87 84 89 92 89 87 87 89 91 89 82 82 89 96 97 95 92 91 90 87 86 88 88 87 88 87 87 86 86 85 84 83 84 84 81 80 81 80 81 83 85 86 87 86 86 88 87 87 88 88 90 93 98 102
101 101 101 100 101 101 99 99 99 97 95 95 95 94 96 98 97 92 88 87 89 90 91 96 101 102 101 99 98 99 97 86 80 87 93 92 90 90 92 97 99 94 91 93 99 100 98 94 93 91 87 84 84 83 83 84 85 84 83 83 83 82 82 82 82 81 81 83 85 86 87 87 87 87 86 86 85 84 83 83 81 79 84 91 97
100 101 100 100 101 101 100 100 99 97 95 96 96 95 96 97 98 98 94 90 87 83 81 85 93 100 102 99 98 100 100 94 91 93 95 96 98 95 88 85 87 87 88 91 94 95 94 92 91 90 87 85 84 83 82 83 83 82 82 81 81 82 83 83 85 86 88 90 91 91 90 90 90 90 90 89 88 86 86 87 86 86 88 91 94
101 100 100 101 102 101 100 100 99 97 97 96 96 96 96 96 96 97 97 95 93 90 88 86 89 95 98 96 96 101 103 101 98 97 98 100 98 86 75 73 76 77 79 83 86 87 88 87 86 86 85 83 82 82 81 81 81 82 83 83 84 85 86 87 90 91 91 92 93 93 94 95 96 96 96 95 94 94 94 93 94 94 94 94 95
100 100 101 102 102 101 100 99 98 97 97 96 95 95 95 95 95 95 95 95 94 94 94 92 90 93 93 88 88 96 102 103 101 101 103 102 93 79 75 79 83 83 83 83 83 84 86 87 86 85 84 83 83 83 83 83 84 85 85 86 88 89 90 91 92 92 93 94 96 97 97 99 99 98 98 98 96 96 96 94 94 94 94 94 95
99 100 101 101 101 101 99 98 97 96 95 95 95 96 95 95 95 93 93 95 93 93 94 93 92 94 93 86 85 93 101 102 99 96 96 94 86 80 82 85 85 86 88 88 88 88 89 91 91 90 89 88 87 87 87 88 88 88 89 90 91 92 94 95 95 95 96 97 98 98 98 98 99 98 97 97 96 96 95 94 93 92 92 94 96
100 100 101 100 100 100 99 98 98 96 95 95 96 96 97 97 96 94 94 94 93 92 94 94 94 97 98 95 95 98 99 96 91 87 86 87 86 86 89 90 88 90 92 93 93 93 93 94 95 94 94 93 92 91 91 91 91 92 93 94 94 94 97 100 100 99 98 97 97 98 96 96 97 96 95 94 94 94 94 93 92 92 92 93 95
100 100 100 100 100 100 100 100 98 97 98 97 96 97 98 97 97 97 97 97 95 93 94 95 95 97 100 101 101 101 98 96 97 95 94 94 94 94 94 94 94 95 95 94 94 94 94 95 96 95 96 96 95 95 95 94 94 95 95 96 96 97 99 100 100 99 99 98 98 98 96 95 95 96 96 96 96 95 95 94 93 93 94 94 95
100 101 100 100 100 100 100 100 99 98 98 98 97 98 98 97 97 98 98 98 97 96 96 96 97 100 102 99 98 100 102 103 105 103 99 98 98 98 98 98 99 98 97 97 97 96 95 96 97 97 97 98 98 99 99 98 98 99 99 99 100 100 100 99 99 100 101 101 99 98 98 97 97 98 98 99 99 98 97 96 95 96 96 97 96
100 101 100 100 101 100 100 100 100 99 99 98 99 98 97 96 97 97 96 97 98 97 97 97 97 100 101 96 92 97 103 104 104 103 101 100 101 100 100 101 101 100 100 100 100 99 98 98 99 99 99 100 101 101 101 101 101 102 102 101 101 101 101 100 100 101 101 100 99 99 100 99 100 100 100 100 100 101 100 99 97 96 96 97 96
100 100 100 101 101 101 101 101 100 99 99 99 99 97 96 97 98 97 96 97 97 96 98 99 98 99 100 96 93 98 103 104 103 103 101 101 101 101 102 102 102 102 102 102 102 102 102 101 101 101 101 101 101 101 102 102 102 102 102 101 100 100 101 101 101 101 101 100 100 100 101 101 101 101 102 102 101 101 101 100 99 97 96 95 95
101 100 100 101 101 100 101 101 100 100 100 100 98 97 97 97 99 99 98 98 96 95 97 99 98 99 99 98 97 100 102 103 103 103 102 101 102 102 102 102 102 102 102 102 103 103 103 102 102 102 101 101 101 101 102 102 101 100 100 101 101 101 101 100 101 101 101 101 101 101 101 101 100 101 102 102 101 100 101 101 100 99 98 96 96
102 100 100 101 101 100 101 100 100 101 100 100 99 99 98 98 99 100 99 98 97 96 98 99 98 98 99 100 100 100 101 101 102 104 103 102 101 101 101 102 102 102 101 102 103 103 102 102 102 102 102 102 102 102 102 101 101 100 100 100 101 100 100 100 101 101 101 101 101 102 101 101 102 102 103 102 101 102 103 103 102 102 101 100 98
103 100 100 101 101 101 100 100 101 101 100 100 100 100 99 99 100 100 99 99 98 98 99 99 99 99 100 101 100 100 100 100 101 102 102 102 101 101 101 102 102 101 101 102 103 101 101 101 102 102 103 104 104 103 103 102 102 101 101 100 100 100 99 100 101 101 101 102 102 101 101 101 102 101 101 102 103 103 103 103 102 103 104 102 101
103 100 100 101 100 100 101 101 101 101 100 100 101 100 99 100 100 99 99 99 99 99 99 100 100 100 100 100 100 100 101 101 100 100 101 102 102 101 101 101 101 102 101 102 102 101 101 101 100 100 102 104 105 105 105 104 104 103 102 101 100 99 99 99 99 99 100 100 101 101 101 101 101 100 100 102 103 103 103 103 103 103 104 103 101
102 100 101 101 100 100 101 100 100 101 101 101 101 100 100 100 100 100 100 100 100 100 100 100 101 101 100 100 101 101 100 101 100 100 100 101 101 101 101 100 101 101 100 100 101 101 101 102 101 101 101 103 104 105 104 104 104 103 102 102 102 101 100 100 99 99 99 98 98 99 101 101 100 100 100 101 101 102 103 104 103 103 102 102 102
101 100 101 100 100 101 101 100 100 101 101 101 101 100 100 100 100 101 101 100 100 101 101 100 101 101 100 100 101 100 100 101 100 100 100 100 100 100 100 100 101 102 102 101 101 101 101 101 102 102 102 103 103 104 104 103 101 100 101 102 102 101 101 101 100 99 98 97 96 97 97 99 100 101 101 100 101 101 102 103 103 103 102 100 100
101 100 101 100 100 100 100 100 101 101 101 101 101 100 100 101 100 100 101 101 100 101 101 100 100 101 100 100 100 100 100 100 100 100 101 101 100 100 100 100 101 102 101 101 102 101 101 100 101 101 102 102 103 103 104 104 103 102 101 101 101 102 102 101 100 100 99 98 97 96 95 95 97 99 101 101 101 100 100 101 102 102 101 99 99
101 100 101 101 101 100 100 100 100 100 100 100 100 100 100 101 100 100 100 101 100 100 101 100 100 100 100 100 100 100 100 100 100 100 101 100 100 101 101 100 100 101 101 101 102 101 101 100 100 101 101 102 103 104 104 103 102 102 100 99 100 101 101 101 101 100 99 98 97 96 94 94 94 95 98 100 100 100 100 100 101 101 100 97 95
103 101 102 103 102 101 100 100 100 100 100 100 100 100 100 100 100 100 100 100 100 100 100 100 100 100 100 100 100 100 100 100 100 100 100 100 100 101 101 100 101 102 101 100 100 101 101 100 100 100 100 99 98 99 101 103 103 103 102 100 99 99 99 99 100 100 99 98 97 96 94 94 93 93 94 96 98 100 101 100 100 100 99 96 93
Wind_Speed
35 35 35 33 33 33 33 32 31 34 36 36 34 32 29 27 27 29 29 29 27 25 24 23 24 26 28 30 31 31 30 30 29 29 29 29 29 28 28 28 28 28 27 28 28 27 27 27 27 28 27 27 27 27 27 27 26 25 24 23 23 22 21 16 9 9 14 17 19 21 21 19 19 19 17 17 16 15 16 17 16 13 12 12 12
36 36 34 32 31 31 31 33 36 39 40 38 35 34 33 32 33 32 31 29 26 24 25 25 25 26 27 28 29 30 30 30 29 28 28 29 28 28 28 28 28 27 27 27 27 27 28 28 27 26 26 27 26 26 27 26 26 27 25 23 23 23 22 19 14 9 11 15 18 20 21 19 18 19 17 16 18 19 18 17 16 14 12 12 13
35 34 31 29 30 33 36 40 42 41 39 37 36 37 36 35 35 32 29 26 23 23 24 25 25 26 26 27 28 29 30 31 30 29 29 29 29 29 28 28 27 27 27 27 27 27 27 27 26 25 25 25 25 25 26 27 26 27 27 25 24 23 23 21 18 13 11 13 16 19 20 18 17 18 18 18 19 20 20 18 17 15 13 12 13
32 31 31 33 36 39 43 45 43 39 37 36 36 35 33 32 31 28 24 23 24 25 25 25 25 26 26 26 27 28 30 31 30 30 30 29 29 29 29 28 27 27 27 28 27 27 27 27 26 26 25 24 24 24 25 26 26 26 27 26 25 24 23 22 21 18 14 12 13 16 18 18 18 18 18 19 20 19 19 18 17 17 15 12 12
31 33 36 40 42 44 45 43 39 36 35 34 32 30 30 29 29 27 26 27 28 28 28 27 26 26 27 27 27 28 29 30 30 30 30 29 29 29 29 28 28 27 27 28 28 27 27 27 26 26 25 25 25 25 24 25 26 25 25 25 25 24 23 23 23 21 17 13 12 15 18 19 18 18 18 18 19 20 19 17 16 17 16 13 12
34 37 40 42 43 42 40 36 33 32 31 30 30 31 33 34 35 34 34 34 34 33 31 29 28 28 28 28 28 28 29 30 30 30 30 29 29 29 29 28 28 27 27 28 28 28 27 26 25 24 24 25 25 26 25 25 25 25 24 24 23 22 22 22 23 21 19 17 15 15 17 19 18 17 17 17 18 20 20 19 17 15 14 13 12
38 41 41 40 39 36 33 31 30 29 30 33 38 39 40 42 42 41 41 41 41 38 35 33 30 29 29 29 29 29 29 29 30 30 29 29 29 29 29 28 27 27 27 28 28 28 27 26 25 24 24 24 24 25 25 25 25 25 25 25 23 21 20 20 20 19 18 17 15 13 15 18 18 17 18 17 17 18 18 18 16 14 13 11 11
41 40 38 36 33 30 30 30 30 33 38 45 47 45 45 45 44 42 42 42 42 40 38 36 33 31 30 30 30 30 29 28 28 29 29 28 28 29 29 28 27 26 26 27 27 27 27 27 27 26 26 26 25 24 24 25 26 25 25 25 25 24 22 20 17 17 16 15 14 12 13 17 18 17 17 16 15 15 14 14 15 17 15 12 12
39 36 34 32 29 29 32 32 34 39 45 47 46 43 43 42 41 41 40 40 39 38 36 35 34 33 32 31 31 30 29 28 28 28 28 29 29 29 28 28 27 26 26 26 26 26 26 26 26 26 27 28 26 25 25 26 27 28 27 25 24 24 23 21 18 16 14 13 12 11 11 14 16 15 14 14 14 14 14 14 15 17 16 15 13
34 31 32 32 31 34 37 37 39 43 44 44 42 41 40 39 38 38 38 39 38 35 34 34 34 34 33 31 30 29 29 29 28 28 28 29 29 29 28 28 27 27 26 25 25 25 25 24 25 25 26 26 25 26 26 26 26 28 28 27 26 25 23 21 19 18 15 12 11 11 9 11 16 15 14 15 15 14 13 13 14 15 14 13 11
30 31 33 35 36 38 39 40 43 43 42 40 39 37 37 37 38 39 39 39 36 32 33 34 35 35 33 31 30 29 29 28 28 28 29 29 29 29 29 29 28 27 26 25 25 24 24 23 23 24 24 25 25 27 27 26 25 25 25 25 26 27 26 24 21 19 16 13 13 13 10 12 17 17 16 17 16 14 13 11 12 14 13 8 6
32 34 35 36 37 39 40 42 42 40 39 38 37 37 38 39 40 40 38 36 34 33 35 36 36 35 33 31 30 29 28 28 28 28 29 29 28 28 29 30 30 28 27 26 25 24 23 23 22 23 25 26 26 26 26 26 25 24 23 23 24 25 27 27 25 22 20 17 15 15 15 16 19 20 18 17 16 14 12 11 10 9 9 8 5
37 37 35 35 36 38 39 40 39 38 39 39 39 40 40 40 39 38 37 36 36 37 37 36 36 34 30 28 29 28 28 28 27 27 28 28 27 27 27 29 30 29 28 27 26 24 22 21 21 22 23 25 25 26 27 27 25 23 23 23 24 24 25 25 25 24 24 21 19 20 21 20 20 21 19 16 14 12 12 12 10 7 9 9 8
37 35 33 34 36 37 38 38 37 39 40 41 41 41 40 40 40 38 38 38 37 37 37 38 37 32 27 27 28 27 27 27 26 27 28 27 27 27 26 25 27 29 29 29 28 27 25 24 23 23 23 24 25 26 27 27 26 25 25 24 23 24 24 24 24 24 24 24 23 23 23 22 22 21 18 16 15 14 13 13 11 9 11 13 13
34 33 33 35 36 37 37 38 39 41 42 42 42 40 40 41 40 39 38 37 37 37 37 37 33 27 25 27 27 26 26 26 25 26 27 26 27 27 24 23 25 28 29 29 29 28 27 26 26 25 24 24 24 24 25 27 26 26 28 28 26 23 23 25 25 25 24 24 25 24 22 21 21 21 19 17 17 16 15 14 13 12 13 15 17
32 32 34 36 37 38 39 40 43 44 43 42 41 40 40 40 39 39 38 36 36 36 34 33 30 26 27 27 25 24 25 26 25 25 25 25 26 26 23 20 22 26 27 28 28 28 27 27 27 26 26 27 26 23 23 25 26 26 28 30 30 27 26 26 25 24 24 24 24 25 25 24 22 21 20 19 19 18 16 16 16 15 12 12 15
33 34 36 38 40 41 42 44 44 44 43 42 41 41 40 39 39 39 36 34 34 33 32 32 32 29 28 26 23 23 24 24 23 23 24 23 24 24 21 17 18 22 26 27 27 28 28 28 29 28 28 29 27 24 23 24 26 27 27 26 27 27 28 27 25 23 23 24 24 26 27 26 24 22 20 18 18 17 15 16 17 14 10 6 7
35 38 40 40 42 44 44 44 44 44 43 42 41 41 40 39 39 37 35 34 35 32 31 34 32 28 25 24 21 21 23 23 21 21 22 22 23 22 20 17 16 18 21 24 26 27 28 27 28 29 30 29 27 25 25 26 27 29 29 25 23 25 27 26 25 24 23 23 24 25 26 26 25 24 22 20 19 18 18 18 15 11 9 8 7
38 41 42 41 42 44 44 43 43 43 43 42 41 41 40 39 38 36 36 36 34 30 31 33 29 24 22 22 20 18 19 21 20 19 21 21 21 21 19 18 18 18 18 19 21 24 27 27 27 28 30 29 26 25 26 26 27 28 29 24 21 24 26 24 23 23 23 24 25 26 26 24 22 21 22 22 21 21 22 22 18 14 12 11 10
40 41 41 42 43 43 42 42 42 42 41 41 41 40 39 39 38 37 37 35 30 27 30 31 26 22 21 20 18 17 18 19 20 19 20 21 21 21 19 18 18 19 19 19 19 21 24 25 26 26 27 27 27 26 26 27 27 26 26 25 23 25 25 23 22 23 23 24 25 26 25 24 22 20 20 20 20 20 21 22 22 21 17 14 13
41 41 41 42 42 42 42 42 41 40 40 39 39 38 38 38 37 37 36 31 26 27 30 27 24 23 20 17 16 17 18 19 20 19 19 21 21 21 21 20 19 19 18 19 20 22 23 24 26 26 26 26 27 26 26 26 27 26 27 29 29 26 24 24 24 22 22 23 23 23 23 23 22 22 20 20 20 20 20 19 21 23 21 19 17
41 42 42 42 42 42 42 41 40 39 39 37 36 36 37 37 37 37 33 27 25 29 28 25 23 23 20 17 17 18 19 20 21 20 20 22 22 22 22 21 20 20 20 20 21 22 23 24 25 26 26 27 27 27 26 26 27 28 30 32 31 26 23 25 25 22 21 22 21 21 21 19 18 19 20 21 21 20 20 20 20 22 23 23 21
42 43 42 43 43 42 41 40 39 38 37 36 35 35 36 37 37 33 27 25 27 28 26 23 22 21 20 19 19 20 21 21 22 22 22 23 24 23 23 23 21 21 22 23 23 23 24 25 25 24 24 26 26 26 26 26 26 28 30 31 30 27 25 24 24 21 21 21 19 19 19 17 16 17 19 20 21 20 21 22 21 21 22 23 23
42 42 43 43 42 41 40 39 38 37 36 35 34 34 36 37 34 29 26 27 27 24 22 22 20 18 19 19 20 21 22 22 23 24 23 24 24 24 23 23 23 23 23 24 24 25 26 26 25 24 24 24 24 24 25 26 27 27 28 28 29 30 27 24 23 22 20 19 19 19 19 18 18 17 16 17 18 18 18 19 19 20 21 22 22
42 42 43 42 41 41 39 38 37 36 35 35 34 34 35 34 30 28 29 29 25 22 21 21 19 17 17 18 19 21 21 21 23 24 23 23 23 23 22 22 22 23 23 24 25 26 25 24 23 23 24 23 22 22 23 25 27 28 27 26 26 28 29 25 22 21 19 19 20 20 19 20 18 16 14 14 14 14 14 13 13 14 17 19 20
42 42 42 41 40 38 38 37 36 34 35 35 35 34 34 32 29 30 30 27 23 23 22 19 18 17 16 17 18 21 21 21 22 23 22 21 21 20 20 19 20 21 21 23 25 26 23 21 22 22 22 23 23 23 23 24 26 27 27 26 23 24 27 24 19 18 17 17 17 18 19 20 19 17 16 15 15 14 14 12 11 12 14 16 17
41 42 40 39 37 36 35 35 34 33 35 36 36 34 33 31 30 29 29 25 23 23 22 20 18 16 15 17 19 20 21 20 21 21 21 20 20 19 18 16 16 18 19 20 23 24 22 21 21 21 20 18 15 14 14 14 14 15 16 17 16 17 18 17 14 14 15 14 13 13 14 16 16 16 15 16 16 16 15 14 13 12 13 15 15
40 39 38 36 35 34 34 33 32 33 35 36 35 32 31 31 31 29 27 25 23 23 23 22 20 18 17 18 18 18 19 20 20 20 19 17 17 17 17 15 14 15 15 15 17 19 20 20 18 16 13 8 7 10 10 10 10 10 10 11 12 12 11 11 11 11 12 11 10 10 10 10 10 9 9 11 14 17 17 16 15 13 13 14 14
38 37 35 34 33 33 32 32 32 34 35 35 35 33 29 29 30 30 29 26 25 26 26 25 24 22 22 22 18 16 18 21 21 19 20 19 16 15 13 12 12 13 13 13 13 12 14 15 14 11 8 8 11 12 11 11 10 9 9 10 10 10 10 10 10 9 9 10 9 9 9 8 8 7 6 7 10 13 16 19 19 16 15 15 14
36 35 34 33 33 33 32 32 33 34 33 33 34 35 34 30 27 27 29 29 29 28 27 26 26 23 19 23 22 19 19 22 22 21 22 20 14 14 12 8 9 10 11 12 12 9 7 8 8 10 11 12 11 10 9 9 8 8 8 7 6 6 6 7 7 8 9 10 10 10 9 9 10 10 9 9 9 10 13 18 21 20 18 16 15
34 34 34 34 33 31 31 33 33 33 33 33 32 33 36 36 32 29 29 30 30 30 27 26 29 28 18 16 21 20 20 22 21 21 21 18 11 10 12 11 10 11 10 11 10 10 9 8 8 9 9 10 10 8 7 6 6 6 6 6 5 6 6 7 7 8 9 9 10 11 11 10 10 10 10 10 10 9 10 12 14 16 16 16 16
33 33 33 33 32 31 31 33 32 31 33 33 32 31 32 34 35 36 36 34 31 29 27 26 29 31 28 19 14 15 17 17 17 17 18 16 11 7 7 8 10 13 15 13 10 10 11 9 8 8 8 8 9 8 7 6 5 6 6 6 6 6 7 7 8 8 9 10 11 12 13 12 12 12 12 12 12 11 11 10 9 9 11 13 14
34 33 33 32 32 32 32 32 31 31 32 32 32 31 29 26 28 33 38 39 37 34 31 30 30 32 31 27 24 24 21 12 14 16 13 10 7 8 10 9 5 3 10 11 9 9 9 9 9 9 10 10 9 8 7 7 6 7 7 7 7 7 7 7 8 9 10 12 12 13 13 13 13 13 14 14 14 14 14 14 13 13 12 12 13
35 33 32 32 31 32 32 31 31 32 32 30 30 30 30 27 25 26 28 31 35 36 35 35 34 32 31 29 29 30 30 23 12 8 6 13 15 14 14 16 16 13 10 10 10 9 8 9 9 9 9 10 9 8 8 8 7 8 8 8 8 8 8 9 10 10 11 11 12 13 13 13 12 12 13 13 14 14 14 14 14 14 14 14 14
35 33 32 32 32 31 31 31 31 31 31 30 30 30 29 28 27 24 23 22 24 25 28 33 34 30 28 29 30 29 29 28 23 18 18 19 17 13 13 15 16 15 13 11 9 8 7 7 7 7 7 8 8 8 8 8 8 8 8 9 9 9 10 10 10 10 11 11 11 12 12 11 11 11 11 11 11 11 12 11 10 10 11 12 12
34 32 32 33 32 31 31 31 31 31 29 29 30 30 29 28 26 24 23 22 21 21 23 27 29 28 27 29 31 30 28 24 21 21 21 20 18 16 15 14 13 11 10 8 6 4 3 3 3 3 4 5 6 7 8 8 8 8 8 8 9 9 9 10 9 9 9 9 9 9 9 10 10 10 9 10 10 9 9 9 8 7 7 6 7
33 31 32 33 32 31 31 31 30 30 30 30 30 30 29 27 26 24 23 22 21 21 22 24 26 26 28 31 33 32 27 21 18 18 19 19 18 17 14 11 9 8 7 6 4 3 2 2 2 3 4 5 6 7 7 8 8 8 8 8 8 8 8 7 7 8 8 8 8 8 8 8 8 9 9 9 9 8 8 7 7 7 7 6 5
32 31 32 32 31 30 30 31 30 30 30 30 30 30 28 26 25 25 24 22 22 21 21 22 22 22 24 28 31 29 23 20 20 21 21 20 18 16 12 9 7 6 6 5 4 2 3 3 2 3 3 4 4 5 6 7 7 8 8 8 8 7 6 6 7 7 7 8 7 7 7 7 8 8 9 9 10 9 9 8 8 8 8 7 6
33 33 33 30 28 28 30 30 30 30 30 30 30 29 27 26 25 25 24 23 22 21 21 21 21 21 23 26 26 23 21 20 21 21 20 19 17 14 12 10 8 6 5 5 3 2 2 1 1 1 2 2 3 3 4 5 5 6 7 8 8 7 6 5 5 5 6 7 6 6 6 7 6 7 8 8 9 9 9 9 8 8 8 7 7
34 34 33 29 27 28 29 29 29 29 29 29 29 28 26 25 25 26 25 23 21 21 21 20 20 22 24 25 23 21 19 18 17 17 17 17 15 14 12 11 9 7 6 5 4 3 2 1 0 1 1 2 3 3 3 3 5 5 5 6 8 7 6 5 5 5 5 5 5 5 5 5 5 6 6 6 7 8 8 9 8 8 7 7 7
33 33 31 29 27 28 29 28 28 29 28 27 27 27 26 25 26 26 25 23 21 21 21 21 22 23 24 24 22 21 18 16 15 16 16 16 14 13 12 10 9 7 6 5 4 3 2 1 1 1 1 2 3 3 3 4 5 5 5 6 7 7 6 6 5 5 5 5 4 4 4 4 4 4 4 4 5 6 7 8 8 8 8 8 7
32 31 30 28 27 28 28 28 28 29 28 27 26 26 25 26 26 26 24 22 21 21 22 22 24 24 24 23 23 21 18 16 15 15 15 15 14 13 12 11 9 7 6 5 4 3 2 1 1 1 2 3 3 4 4 4 5 5 6 6 6 7 6 6 6 5 5 5 4 4 4 3 3 4 3 3 4 5 6 7 7 8 8 8 7
31 29 28 28 27 27 27 27 28 28 27 26 26 25 25 25 26 25 24 22 22 22 22 23 24 25 24 24 23 22 20 18 16 14 15 15 14 13 13 12 10 8 6 4 3 2 1 0 1 2 2 3 3 4 5 4 4 5 6 6 7 6 6 5 6 6 6 5 4 4 4 4 4 4 4 3 3 4 5 5 5 6 7 7 7
29 28 27 26 26 27 27 26 27 26 26 25 25 24 25 25 25 25 24 23 22 22 22 23 24 24 24 24 23 22 22 20 17 14 14 14 14 13 13 13 11 9 8 7 4 2 2 2 1 2 2 3 3 3 4 4 4 4 5 6 7 6 5 4 4 4 5 5 5 5 5 5 5 5 4 3 3 3 3 3 3 4 4 5 6
28 27 26 25 25 26 26 26 26 25 25 26 26 26 25 25 25 24 23 22 22 22 23 23 24 23 23 24 24 23 22 22 20 16 14 13 13 14 14 13 11 9 9 9 7 4 3 3 3 2 1 2 3 3 3 3 3 3 4 4 5 4 4 3 3 3 3 4 4 5 5 6 6 5 3 3 4 3 3 2 2 2 3 3 4
29 27 26 25 25 24 24 24 25 25 25 25 26 26 26 25 24 23 23 22 21 21 23 24 24 23 23 23 23 23 22 22 21 19 15 13 13 14 14 13 11 10 10 10 7 5 3 3 3 3 2 1 0 1 2 2 2 3 3 3 2 2 3 3 2 2 2 2 3 3 4 5 5 5 4 4 4 4 3 3 3 2 2 2 2
29 27 26 26 25 24 24 23 23 23 23 24 24 24 24 24 24 23 23 23 21 21 23 24 24 23 23 23 23 23 23 22 21 20 18 14 13 14 14 13 12 11 11 11 9 6 5 3 3 3 3 3 2 1 1 1 1 2 3 2 2 2 2 2 2 2 2 2 3 3 3 4 4 4 4 4 4 4 4 3 3 3 2 2 2
27 27 26 26 25 25 25 24 24 23 23 23 23 23 23 23 24 24 24 24 22 22 23 24 23 23 23 22 22 22 22 22 21 21 19 16 15 15 15 14 12 11 10 10 10 9 7 5 3 3 4 3 2 2 2 2 2 2 2 2 2 3 2 2 2 2 3 3 3 2 2 3 3 3 3 3 4 4 4 4 3 3 3 3 3
26 25 25 26 25 24 24 24 24 24 23 23 23 22 22 22 23 23 24 24 23 22 22 23 23 23 23 22 22 22 22 21 21 21 19 18 17 16 16 15 13 11 10 10 10 10 9 8 6 4 4 4 3 3 3 4 4 5 4 4 3 3 3 3 3 3 3 3 3 3 2 3 2 2 3 3 3 3 3 3 3 3 3 3 4
26 25 25 24 24 24 24 24 24 23 23 23 23 22 22 22 22 23 24 24 23 22 22 23 23 23 23 22 21 22 22 21 21 21 20 19 18 18 17 16 14 12 11 10 10 10 10 10 8 6 4 4 4 4 4 5 5 6 6 5 5 4 4 4 4 4 4 4 4 3 3 3 3 2 2 3 2 2 3 2 2 2 3 3 4
26 25 25 24 24 24 24 24 24 24 24 23 22 22 23 23 22 23 23 23 22 22 22 23 23 22 22 22 21 21 20 20 20 20 20 20 19 19 18 17 15 14 12 10 9 9 10 10 10 9 8 6 5 4 5 5 6 6 6 6 5 5 4 4 4 4 4 4 5 5 4 3 3 3 2 2 2 2 2 2 1 1 2 3 3
Wind_Direction
328 327 325 324 325 327 329 331 332 332 329 326 323 320 313 304 302 300 297 293 292 294 298 303 307 308 306 300 292 283 269 255 246 241 239 238 237 237 237 237 238 239 242 244 243 243 243 243 244 242 242 244 245 244 243 242 242 242 244 243 237 234 231 224 232 261 262 265 273 280 286 293 297 299 304 304 303 307 311 305 297 299 305 303 303
327 325 323 323 326 329 331 333 332 328 325 321 318 317 313 308 305 300 293 290 290 295 301 306 309 309 305 298 290 281 270 258 250 245 241 238 237 236 236 237 238 239 241 243 243 243 244 244 244 243 241 242 243 244 243 241 240 240 241 240 236 233 231 230 235 253 266 268 272 280 285 288 293 298 304 305 302 303 307 306 300 296 300 303 298
324 324 325 328 331 332 331 329 326 323 321 318 317 316 312 310 309 301 291 290 296 303 308 310 311 308 302 295 287 278 270 260 254 248 243 239 237 236 236 237 238 239 240 242 243 242 242 243 243 241 240 241 242 244 243 241 238 237 239 239 238 236 233 233 237 247 262 270 272 277 282 286 292 298 303 304 302 300 299 299 301 296 294 302 297
327 331 333 333 332 330 327 324 322 320 318 316 314 314 313 317 320 312 301 304 309 311 312 311 308 303 295 290 283 275 267 260 254 250 245 240 237 236 236 237 237 238 239 240 241 241 241 241 241 241 241 242 244 244 241 239 237 235 236 238 237 237 237 236 239 246 255 267 270 271 279 287 292 296 301 304 304 302 298 295 298 296 292 298 294
336 337 335 332 328 326 324 322 320 318 317 317 319 323 327 330 331 325 318 316 313 310 309 307 304 298 291 286 281 273 266 259 254 250 245 240 237 236 236 236 237 237 239 240 241 241 241 240 241 241 241 243 244 243 240 237 234 233 233 234 235 236 238 238 240 243 247 257 267 273 279 286 290 293 298 303 304 305 303 298 298 297 292 294 293
339 336 332 328 325 323 322 322 323 324 326 330 333 333 331 329 326 323 319 316 313 309 306 304 301 297 290 285 280 272 265 258 253 249 244 240 237 235 235 236 237 237 238 240 241 241 240 240 240 240 240 241 242 241 240 238 235 233 231 232 233 233 236 237 236 237 244 255 265 272 279 283 288 293 296 301 301 301 303 304 302 298 290 291 296
335 331 328 326 324 323 325 328 331 334 336 335 331 327 324 321 319 317 314 312 310 307 303 300 298 295 289 285 280 273 264 257 252 247 243 239 236 235 235 236 237 237 238 240 240 240 240 240 239 239 239 241 243 243 241 239 236 234 232 233 233 233 235 236 235 236 243 253 260 264 273 279 284 290 296 301 301 297 298 300 300 296 291 292 303
332 330 328 326 324 326 332 335 336 334 331 327 324 323 322 319 317 315 314 312 309 306 302 298 296 294 289 285 280 273 264 256 250 245 241 238 235 234 235 235 236 237 238 239 240 239 239 239 240 241 242 244 247 249 247 243 237 234 234 234 234 234 236 235 234 236 240 246 253 258 268 277 281 287 292 296 297 296 297 301 300 295 292 294 304
331 329 329 328 329 334 336 335 332 329 326 324 323 322 321 319 318 317 315 312 310 307 303 300 298 294 289 284 279 271 262 254 249 244 239 237 235 234 234 235 236 237 238 239 238 237 237 238 240 242 244 246 249 251 252 249 241 236 235 233 231 232 234 234 232 233 236 240 247 253 260 269 274 280 284 285 286 290 299 311 313 305 295 291 299
330 330 332 331 332 333 331 329 328 327 325 324 323 322 321 320 319 317 315 313 309 306 305 303 300 295 289 284 277 269 260 253 248 244 240 237 234 233 234 235 236 237 238 238 237 237 237 239 241 243 245 247 249 250 250 247 240 237 237 235 233 230 229 230 229 229 232 234 238 243 249 261 266 269 271 276 282 288 299 314 324 324 312 290 286
331 333 331 329 328 328 328 327 327 326 326 325 324 323 322 321 320 317 316 313 309 306 307 305 301 296 290 283 275 267 258 251 247 245 244 241 236 232 232 235 236 236 237 237 237 238 239 241 243 244 245 246 248 248 249 247 241 238 237 235 234 232 229 227 226 225 227 230 235 238 240 252 262 265 267 273 279 283 291 304 317 331 334 308 281
332 330 328 327 328 328 328 328 327 326 327 326 324 323 322 320 320 318 316 315 313 311 309 304 300 296 289 281 274 266 257 250 247 247 246 244 241 235 232 232 233 234 234 235 236 237 238 240 242 244 245 246 246 247 248 250 247 242 239 235 232 231 229 228 227 224 222 224 230 235 237 245 256 262 265 269 275 278 285 295 305 325 334 325 324
330 327 327 329 329 329 328 327 327 326 326 325 324 323 322 321 320 319 317 315 314 311 307 304 300 295 287 282 275 265 255 248 247 248 247 246 245 241 236 232 229 229 229 230 232 233 234 236 239 242 244 245 246 245 247 250 250 248 246 241 235 231 228 227 227 227 226 225 228 235 240 244 251 257 259 262 271 277 282 289 296 308 310 310 324
329 329 330 330 330 329 329 328 326 325 325 325 324 323 322 321 320 318 316 313 311 310 306 303 299 292 287 285 276 264 253 246 246 250 250 248 247 247 245 239 232 229 228 227 227 228 230 232 235 238 241 243 244 244 245 246 248 248 248 246 240 234 230 228 225 224 227 228 232 241 249 250 250 256 259 260 264 269 277 285 292 298 299 300 303
330 331 330 330 330 330 329 327 325 324 324 324 324 322 321 320 319 317 316 313 311 310 307 303 299 293 293 290 277 261 251 246 248 252 252 251 251 251 253 250 238 229 228 227 226 226 227 229 232 235 239 241 242 243 243 242 243 244 245 245 245 240 233 231 227 224 224 227 233 243 252 255 254 258 262 264 263 265 271 280 285 288 295 298 297
332 332 331 330 330 330 328 326 324 324 324 324 323 322 320 319 318 317 315 312 311 309 307 309 307 301 299 293 274 257 251 249 252 255 254 253 254 255 259 254 238 226 224 225 225 226 227 228 231 235 238 240 240 241 241 239 237 238 240 241 243 243 239 233 229 228 227 229 236 245 253 259 261 261 262 262 263 264 266 271 274 275 285 296 295
333 332 330 329 329 328 327 326 324 323 324 323 322 321 319 317 317 316 313 310 310 306 305 311 309 300 296 290 271 256 253 252 255 259 258 256 255 257 258 250 235 225 223 224 225 226 227 228 230 233 236 238 239 240 242 239 232 230 232 235 235 237 238 234 230 230 231 232 236 242 248 255 255 254 253 251 253 257 254 255 260 262 265 273 282
332 331 329 328 327 327 326 325 323 323 323 322 320 319 318 316 315 315 312 308 306 304 306 310 306 296 293 287 271 258 255 255 256 260 262 260 258 259 257 248 236 227 222 223 227 228 229 229 230 232 235 237 239 239 240 240 233 225 223 226 228 229 232 230 227 230 234 238 240 240 241 245 245 244 243 242 243 242 234 235 243 243 237 234 244
331 329 327 326 326 326 326 325 324 323 322 321 320 318 317 316 315 314 312 308 304 305 312 312 304 296 293 286 272 261 258 259 259 261 264 265 263 263 261 252 243 235 227 224 226 229 231 230 230 233 236 237 239 240 239 239 237 228 218 216 222 227 227 224 222 227 233 239 243 244 244 245 245 245 244 243 244 243 238 236 237 232 228 236 245
329 328 326 326 326 326 326 325 324 323 322 321 321 319 318 317 316 315 313 308 304 310 316 313 306 300 294 283 273 267 263 263 263 264 267 268 266 266 263 254 245 241 236 231 229 230 231 231 232 236 240 240 239 239 237 235 237 232 219 212 218 225 222 219 221 226 232 237 240 242 245 248 251 253 253 251 249 248 247 243 239 235 232 237 242
328 328 327 327 327 326 327 327 325 324 323 322 321 321 320 318 317 315 311 307 309 316 316 313 310 306 296 282 274 271 268 268 268 268 269 271 269 266 262 255 247 241 237 234 233 233 234 235 237 239 242 243 241 238 236 233 233 231 223 219 223 224 219 220 224 226 230 236 239 241 245 249 252 253 253 253 251 250 250 248 244 240 236 236 236
329 328 327 328 328 328 328 328 327 326 325 324 322 321 321 321 318 314 310 311 319 320 314 310 310 307 299 289 282 277 274 273 272 271 272 272 270 267 262 257 249 240 233 232 233 235 236 238 239 240 241 243 244 243 239 235 231 228 225 224 225 223 220 224 227 226 227 233 237 242 247 252 252 249 246 245 245 245 247 246 245 243 242 241 240
330 329 329 329 329 329 329 329 329 327 326 326 325 323 324 323 319 315 316 322 323 319 314 311 309 305 300 294 288 284 281 279 277 275 273 273 272 268 262 257 252 241 231 230 233 235 238 239 240 241 241 241 242 243 242 239 235 231 229 225 221 218 217 221 222 221 223 226 230 236 243 249 250 249 246 242 240 241 243 244 243 242 243 244 246
331 330 330 330 330 330 330 330 330 329 329 329 328 327 327 325 321 320 326 327 321 316 316 314 307 303 300 296 292 290 287 284 283 280 277 273 272 270 264 259 254 245 234 228 232 237 239 240 241 241 243 243 241 239 239 238 237 236 234 229 221 214 212 213 215 216 216 217 220 226 234 241 247 251 252 250 247 246 249 249 246 242 241 245 249
331 330 331 331 331 331 330 330 331 331 332 331 330 329 328 325 324 328 329 324 318 316 315 312 307 304 299 295 294 295 292 289 288 286 283 278 273 269 266 260 255 250 236 225 231 240 240 240 242 242 241 244 244 239 235 234 235 236 235 233 225 215 210 209 208 207 207 209 213 217 225 234 244 255 262 262 259 256 255 254 250 243 241 245 250
332 331 331 331 332 332 331 330 331 332 333 333 331 330 329 326 326 329 327 321 318 317 312 307 305 302 298 297 297 297 296 294 291 289 286 281 276 272 269 261 254 250 238 225 231 241 242 239 243 244 246 252 252 246 239 235 235 236 235 235 230 217 209 207 205 201 202 208 213 216 223 235 248 257 260 260 259 256 252 248 245 241 237 238 242
332 331 331 331 331 332 331 329 329 331 333 333 332 331 332 330 327 326 324 321 319 318 314 308 303 298 296 296 295 296 299 296 292 292 289 282 277 274 271 266 256 250 241 227 226 234 238 240 243 249 257 260 248 230 223 217 212 215 219 220 215 207 204 206 207 207 208 212 215 215 219 229 239 246 249 250 250 249 245 240 237 238 236 234 236
332 330 331 331 331 331 330 328 329 331 332 333 332 331 331 331 328 324 323 322 321 319 314 308 299 290 286 287 288 291 296 297 294 291 287 283 280 274 269 264 255 248 243 234 228 232 239 245 251 257 260 243 174 155 156 155 153 156 162 167 171 177 184 188 192 196 198 200 202 198 194 199 208 215 229 239 239 239 237 232 229 231 231 230 231
332 331 332 332 331 331 330 330 331 331 331 332 332 330 331 331 328 325 325 326 324 318 311 307 304 293 276 272 277 276 280 293 300 293 287 286 279 266 262 256 244 241 240 236 237 240 241 241 242 236 213 169 138 132 136 138 139 141 144 148 155 163 168 172 178 185 190 197 204 205 203 210 217 223 232 234 232 232 229 225 224 225 225 224 225
333 332 333 332 331 331 330 330 332 332 332 333 332 331 332 334 334 332 330 330 329 324 318 319 326 321 285 266 272 273 274 290 300 295 294 299 279 244 237 231 220 223 228 225 221 215 202 195 187 174 159 144 131 126 131 138 142 146 150 157 169 177 182 186 190 194 201 209 218 225 233 241 245 249 251 245 238 232 225 221 220 217 215 215 218
333 332 333 332 331 331 330 330 331 333 334 334 334 332 332 333 336 339 338 336 335 335 333 334 342 349 336 289 278 278 280 291 296 291 296 310 303 251 240 232 214 208 212 213 204 186 165 149 144 144 138 132 132 138 146 155 164 167 171 181 191 199 207 209 209 212 214 219 227 235 243 246 245 245 246 243 241 239 233 228 222 213 210 211 212
333 331 331 331 330 331 330 330 331 333 335 336 336 335 334 332 334 338 342 343 341 341 344 346 348 353 357 350 329 315 302 289 283 288 301 311 308 284 260 246 229 217 213 210 198 183 179 174 162 156 149 140 139 144 152 163 177 186 191 195 197 202 211 216 220 224 224 224 229 232 235 237 236 235 236 237 239 241 241 245 245 236 227 221 216
335 332 332 332 331 332 331 331 332 334 335 336 336 337 336 333 331 333 338 343 345 347 351 354 352 351 354 358 360 359 354 326 274 276 304 342 25 63 70 64 63 172 192 186 168 159 167 170 164 162 160 154 150 151 156 163 171 178 186 197 207 216 226 232 233 233 231 230 230 231 233 235 236 237 239 239 241 245 248 253 257 256 249 239 230
337 335 334 333 332 332 332 332 333 334 335 336 336 336 335 333 331 331 333 339 344 347 348 350 352 352 353 354 354 357 4 7 348 308 357 48 60 63 61 58 54 59 80 98 101 108 123 133 139 146 152 154 157 160 165 170 178 188 201 216 228 237 243 241 237 236 233 231 230 232 234 236 236 237 238 237 238 243 245 247 247 243 237 233 230
339 337 337 336 335 333 333 333 334 335 336 336 337 336 335 333 332 333 334 335 337 339 341 343 346 349 351 354 356 355 357 5 14 23 35 42 41 37 41 47 48 49 56 66 72 79 92 107 124 138 150 160 169 178 186 193 201 210 218 227 232 236 237 236 235 237 236 235 236 235 234 235 234 232 231 229 228 230 230 228 228 227 225 224 220
339 338 338 338 337 334 334 335 336 336 336 337 337 336 336 336 334 335 336 336 335 335 336 338 342 345 349 356 1 -0 357 359 10 21 28 30 27 28 37 47 50 52 57 58 59 72 87 106 140 164 181 190 195 202 207 210 214 220 225 227 227 226 229 232 234 235 232 230 230 227 226 228 228 225 225 225 223 224 226 225 224 225 230 231 221
339 338 338 338 337 335 336 337 337 338 339 339 339 339 338 338 339 340 339 339 339 339 339 340 343 346 351 356 359 358 357 0 10 18 23 24 23 27 37 44 45 50 56 56 59 83 105 123 152 176 190 194 198 205 207 207 211 214 215 215 215 216 220 224 222 222 222 220 219 221 221 224 226 227 229 230 229 231 234 235 239 243 245 249 246
339 338 338 338 337 337 338 338 339 341 342 341 341 342 340 340 342 343 341 342 343 342 343 344 346 347 348 350 353 354 357 5 12 15 16 18 23 29 34 35 33 41 54 57 60 79 96 106 130 156 166 175 188 197 201 206 211 213 212 212 209 204 203 206 210 216 221 219 220 223 227 230 235 236 237 238 238 239 239 240 246 253 254 257 259
338 338 339 339 339 339 339 339 340 342 343 342 343 343 342 342 344 344 341 341 344 345 345 346 348 350 348 346 349 358 8 12 14 15 17 20 24 27 28 30 35 41 45 46 48 56 72 83 114 152 162 178 190 195 203 211 211 206 207 206 198 190 191 202 209 211 210 210 214 221 229 234 236 235 236 238 238 237 236 235 237 243 250 256 258
336 337 338 339 340 340 341 341 342 343 344 343 343 344 343 344 345 344 341 341 343 345 347 347 347 349 349 349 355 7 14 13 12 16 18 19 22 25 28 32 34 33 33 39 43 42 35 26 30 165 170 173 171 170 182 192 188 181 179 178 178 178 178 179 178 173 177 187 198 209 221 229 230 229 233 236 233 233 233 231 230 232 236 241 247
335 336 337 338 339 340 341 343 343 344 344 343 343 344 344 345 346 345 343 344 346 345 347 349 349 349 351 354 1 10 15 15 16 20 22 21 20 22 25 28 29 27 28 32 36 38 39 40 52 149 160 162 164 167 166 164 170 175 171 166 170 174 172 170 172 173 175 181 191 202 212 219 219 222 226 229 231 232 230 228 229 232 232 234 241
336 335 335 337 338 340 341 342 342 343 344 344 345 345 344 344 346 347 346 346 347 347 348 350 350 351 353 358 2 7 12 14 16 20 22 20 17 15 15 14 14 14 13 15 24 33 44 63 105 138 150 154 160 164 160 156 161 169 168 166 168 170 169 169 171 172 174 176 179 187 191 187 188 196 199 211 228 231 228 228 229 229 231 235 237
336 335 335 335 337 339 339 340 341 343 344 344 344 344 344 344 345 347 348 348 348 349 350 351 350 351 354 359 2 4 7 8 10 15 18 17 14 11 7 4 3 3 1 0 3 0 352 328 175 168 164 160 158 161 163 165 170 176 176 173 171 168 165 165 166 169 176 176 162 154 158 160 167 178 181 195 225 226 220 224 227 224 226 231 230
336 336 335 335 336 338 339 340 341 342 342 342 343 343 344 345 346 347 348 348 350 351 351 350 350 351 353 357 360 2 3 2 4 10 12 12 12 10 6 4 4 3 3 3 359 345 330 319 288 246 216 196 186 183 184 184 185 188 186 183 184 184 183 176 165 162 170 175 169 162 156 151 151 159 165 177 195 192 181 189 204 209 213 220 221
338 336 335 335 336 337 338 340 340 340 340 342 343 343 345 346 347 348 348 347 348 350 351 350 351 351 353 355 358 359 360 359 0 3 5 8 11 10 7 4 3 0 0 4 4 357 342 334 327 316 269 216 204 204 206 203 200 202 200 197 196 194 185 173 160 149 153 167 173 173 167 159 156 156 152 155 165 166 160 157 165 177 189 201 209
338 337 335 335 335 335 336 338 338 339 341 341 341 342 343 344 345 347 348 347 347 349 349 350 351 352 352 353 355 357 357 357 359 1 1 3 8 11 10 8 6 1 360 2 4 3 356 346 340 343 345 337 236 194 194 190 192 197 202 203 197 178 165 164 163 155 152 156 161 163 163 163 164 158 141 136 148 156 151 148 148 150 158 170 187
338 336 335 335 334 334 335 336 337 338 339 340 340 340 340 341 342 345 346 346 347 348 348 349 350 351 351 352 353 355 355 356 358 2 4 4 6 8 9 8 5 1 360 1 4 4 359 347 325 315 322 329 329 312 259 221 214 211 206 203 198 187 178 175 170 170 172 174 168 166 163 163 164 156 138 131 136 135 126 122 125 131 138 145 151
337 335 334 334 334 333 334 336 337 336 337 338 338 338 338 338 339 342 343 344 345 346 347 349 350 350 350 351 351 353 354 355 356 359 2 5 6 6 5 4 1 357 356 358 1 0 358 354 340 318 310 307 300 283 271 269 272 265 247 234 227 222 222 221 211 206 206 199 188 186 181 172 167 161 150 142 136 127 118 107 96 101 116 134 140
336 334 333 332 332 332 333 333 334 334 335 335 335 335 337 338 337 338 341 342 343 344 346 347 348 349 349 350 350 351 352 355 356 356 357 360 1 0 360 359 358 356 352 350 352 355 357 356 351 337 318 303 294 283 272 270 275 278 279 278 271 261 262 263 249 235 231 223 210 207 205 195 186 174 162 159 152 140 130 114 88 78 86 107 127
334 333 332 330 330 330 331 332 333 333 334 334 333 333 335 336 336 337 339 340 340 343 345 345 345 347 347 348 349 350 350 351 353 353 354 356 356 355 355 355 355 355 352 345 340 344 350 353 354 351 341 319 302 288 279 275 278 281 284 287 285 277 274 275 268 256 246 235 225 223 221 213 209 201 181 174 172 162 149 133 104 83 81 90 105
332 332 331 330 330 330 330 331 332 333 333 334 333 332 333 333 333 334 335 337 337 339 342 342 343 344 345 346 348 349 349 349 350 351 353 353 352 352 352 353 352 351 351 347 341 339 339 341 345 349 348 341 327 304 282 273 276 280 283 286 287 282 275 271 266 259 250 241 233 232 232 228 223 221 211 199 191 182 172 162 139 113 89 84 90